N84AB KATL-KJAX

Flight info

Callsign N84AB
Flight time 0h 44m
Altitude 25000
Route VRSTY3 NOKIE DUCHY OHDEA2
Aircraft C750/M-SBDE3FGHRWXY/S

Departure

Time 2026-05-04 20:19
Airport Hartsfield Jackson Atlanta International Airport (KATL)

Arrival

Time 2026-05-04 21:04
Airport Jacksonville International Airport (KJAX)
Time Latitude Longitude Altitude Speed Heading
2026-05-04 19:58 33.65140 -84.42914 1003 ft 0 kts 180°
2026-05-04 20:04 33.65147 -84.42914 1031 ft 4 kts 178°
2026-05-04 20:04 33.65173 -84.42917 999 ft 4 kts 160°
2026-05-04 20:05 33.65193 -84.42933 1003 ft 3 kts 107°
2026-05-04 20:05 33.65195 -84.42947 1003 ft 1 kts 90°
2026-05-04 20:05 33.65195 -84.42948 1003 ft 0 kts 90°
2026-05-04 20:09 33.65195 -84.42947 1003 ft 0 kts 90°
2026-05-04 20:10 33.65195 -84.42945 1003 ft 2 kts 90°
2026-05-04 20:10 33.65195 -84.42902 1003 ft 5 kts 90°
2026-05-04 20:11 33.65195 -84.42859 1003 ft 6 kts 83°
2026-05-04 20:11 33.65202 -84.42799 1003 ft 7 kts 88°
2026-05-04 20:11 33.65203 -84.42739 1003 ft 9 kts 89°
2026-05-04 20:11 33.65202 -84.42663 1003 ft 8 kts 90°
2026-05-04 20:12 33.65185 -84.42603 1003 ft 7 kts 131°
2026-05-04 20:12 33.65141 -84.42589 1003 ft 6 kts 180°
2026-05-04 20:12 33.65092 -84.42584 1003 ft 7 kts 156°
2026-05-04 20:12 33.65064 -84.42524 1003 ft 9 kts 92°
2026-05-04 20:13 33.65065 -84.42427 1004 ft 13 kts 89°
2026-05-04 20:13 33.65064 -84.42314 1004 ft 17 kts 92°
2026-05-04 20:13 33.65065 -84.42169 1003 ft 17 kts 89°
2026-05-04 20:13 33.65065 -84.42032 1003 ft 16 kts 90°
2026-05-04 20:14 33.65064 -84.41898 1003 ft 18 kts 90°
2026-05-04 20:14 33.65065 -84.41753 1003 ft 17 kts 89°
2026-05-04 20:14 33.65066 -84.41613 1002 ft 14 kts 89°
2026-05-04 20:14 33.65089 -84.41520 1003 ft 13 kts 63°
2026-05-04 20:15 33.65117 -84.41418 1003 ft 12 kts 83°
2026-05-04 20:15 33.65119 -84.41314 1003 ft 14 kts 90°
2026-05-04 20:15 33.65119 -84.41199 1003 ft 13 kts 90°
2026-05-04 20:15 33.65119 -84.41098 1003 ft 9 kts 90°
2026-05-04 20:16 33.65119 -84.41087 1003 ft 0 kts 90°
2026-05-04 20:17 33.65119 -84.41086 1003 ft 2 kts 90°
2026-05-04 20:17 33.65119 -84.41032 1003 ft 9 kts 91°
2026-05-04 20:18 33.65097 -84.40973 1003 ft 7 kts 143°
2026-05-04 20:18 33.65052 -84.40961 1003 ft 6 kts 177°
2026-05-04 20:18 33.64996 -84.40962 1003 ft 8 kts 186°
2026-05-04 20:18 33.64955 -84.40998 1003 ft 7 kts 253°
2026-05-04 20:19 33.64953 -84.41059 1003 ft 14 kts 271°
2026-05-04 20:19 33.64956 -84.41606 1003 ft 121 kts 271°
2026-05-04 20:19 33.64992 -84.42832 1212 ft 165 kts 269°
2026-05-04 20:19 33.65022 -84.44295 1875 ft 179 kts 268°
2026-05-04 20:20 33.65012 -84.45789 2781 ft 180 kts 273°
2026-05-04 20:20 33.65226 -84.47260 3714 ft 178 kts 277°
2026-05-04 20:20 33.65455 -84.48731 4620 ft 181 kts 277°
2026-05-04 20:20 33.65694 -84.50236 5536 ft 185 kts 278°
2026-05-04 20:21 33.65946 -84.51779 6430 ft 191 kts 278°
2026-05-04 20:21 33.66202 -84.53365 7280 ft 197 kts 277°
2026-05-04 20:21 33.66741 -84.56698 9104 ft 208 kts 277°
2026-05-04 20:22 33.66833 -84.58450 9818 ft 219 kts 255°
2026-05-04 20:22 33.66190 -84.60124 9833 ft 219 kts 237°
2026-05-04 20:22 33.65349 -84.61795 9641 ft 252 kts 237°
2026-05-04 20:22 33.64414 -84.63711 10049 ft 277 kts 238°
2026-05-04 20:23 33.63324 -84.65631 10819 ft 280 kts 225°
2026-05-04 20:23 33.61726 -84.66963 11703 ft 282 kts 211°
2026-05-04 20:23 33.60010 -84.68137 12546 ft 287 kts 211°
2026-05-04 20:23 33.58233 -84.69219 13273 ft 297 kts 200°
2026-05-04 20:24 33.56149 -84.69451 14042 ft 305 kts 178°
2026-05-04 20:24 33.54033 -84.69094 14851 ft 308 kts 173°
2026-05-04 20:24 33.51913 -84.68660 15643 ft 312 kts 173°
2026-05-04 20:24 33.49760 -84.68243 16462 ft 315 kts 174°
2026-05-04 20:25 33.47584 -84.67846 17295 ft 318 kts 175°
2026-05-04 20:25 33.45380 -84.67437 18142 ft 322 kts 175°
2026-05-04 20:25 33.43199 -84.66705 18753 ft 338 kts 159°
2026-05-04 20:25 33.41230 -84.64931 18752 ft 375 kts 135°
2026-05-04 20:26 33.39722 -84.62228 18774 ft 404 kts 122°
2026-05-04 20:26 33.38349 -84.59234 19163 ft 414 kts 120°
2026-05-04 20:26 33.36967 -84.56206 19826 ft 418 kts 122°
2026-05-04 20:26 33.35481 -84.53186 20437 ft 423 kts 123°
2026-05-04 20:27 33.33963 -84.50137 21059 ft 429 kts 123°
2026-05-04 20:27 33.32471 -84.47018 21681 ft 435 kts 122°
2026-05-04 20:27 33.30976 -84.43853 22295 ft 441 kts 122°
2026-05-04 20:27 33.29432 -84.40665 22910 ft 446 kts 123°
2026-05-04 20:28 33.27854 -84.37446 23550 ft 451 kts 123°
2026-05-04 20:28 33.26275 -84.34184 24074 ft 456 kts 122°
2026-05-04 20:28 33.24687 -84.30880 24604 ft 460 kts 122°
2026-05-04 20:28 33.23079 -84.27559 25040 ft 467 kts 122°
2026-05-04 20:29 33.21411 -84.24142 25050 ft 484 kts 123°
2026-05-04 20:29 33.19696 -84.20623 25052 ft 499 kts 122°
2026-05-04 20:29 33.17933 -84.16987 25052 ft 513 kts 122°
2026-05-04 20:29 33.16124 -84.13258 25046 ft 523 kts 122°
2026-05-04 20:30 33.14305 -84.09529 25040 ft 527 kts 122°
2026-05-04 20:30 33.12468 -84.05769 25037 ft 524 kts 122°
2026-05-04 20:30 33.10606 -84.02008 25032 ft 525 kts 124°
2026-05-04 20:30 33.08417 -83.98548 25019 ft 521 kts 134°
2026-05-04 20:31 33.05853 -83.95506 25017 ft 517 kts 142°
2026-05-04 20:31 33.02998 -83.92931 25028 ft 514 kts 148°
2026-05-04 20:31 33.00061 -83.90494 25025 ft 514 kts 148°
2026-05-04 20:31 32.97134 -83.88037 25032 ft 515 kts 148°
2026-05-04 20:32 32.94210 -83.85577 25037 ft 515 kts 148°
2026-05-04 20:32 32.91277 -83.83133 25039 ft 515 kts 148°
2026-05-04 20:32 32.88337 -83.80693 25041 ft 515 kts 148°
2026-05-04 20:32 32.85404 -83.78248 25041 ft 515 kts 148°
2026-05-04 20:33 32.82510 -83.75829 25038 ft 515 kts 148°
2026-05-04 20:33 32.79579 -83.73390 25038 ft 515 kts 148°
2026-05-04 20:33 32.76644 -83.70954 25037 ft 515 kts 148°
2026-05-04 20:33 32.73706 -83.68515 25037 ft 515 kts 148°
2026-05-04 20:34 32.70772 -83.66077 25027 ft 515 kts 148°
2026-05-04 20:34 32.67821 -83.63689 25025 ft 514 kts 150°
2026-05-04 20:34 32.64815 -83.61370 25014 ft 514 kts 150°
2026-05-04 20:34 32.61824 -83.59041 25015 ft 514 kts 150°
2026-05-04 20:35 32.58835 -83.56704 25019 ft 514 kts 150°
2026-05-04 20:35 32.55841 -83.54378 25019 ft 514 kts 150°
2026-05-04 20:35 32.52845 -83.52064 25020 ft 514 kts 150°
2026-05-04 20:35 32.49846 -83.49744 25019 ft 514 kts 150°
2026-05-04 20:36 32.46862 -83.47427 25018 ft 514 kts 150°
2026-05-04 20:36 32.43870 -83.45107 25017 ft 514 kts 150°
2026-05-04 20:36 32.40865 -83.42787 25026 ft 514 kts 150°
2026-05-04 20:36 32.37910 -83.40507 25022 ft 515 kts 150°
2026-05-04 20:37 32.34916 -83.38194 25026 ft 515 kts 150°
2026-05-04 20:37 32.31872 -83.35844 25026 ft 515 kts 150°
2026-05-04 20:37 32.28917 -83.33568 25028 ft 515 kts 150°
2026-05-04 20:37 32.25912 -83.31255 25029 ft 515 kts 150°
2026-05-04 20:38 32.22919 -83.28952 25027 ft 515 kts 150°
2026-05-04 20:38 32.19914 -83.26641 25029 ft 515 kts 150°
2026-05-04 20:38 32.16914 -83.24336 25026 ft 514 kts 150°
2026-05-04 20:38 32.13912 -83.22033 25034 ft 516 kts 150°
2026-05-04 20:39 32.10902 -83.19724 25030 ft 516 kts 150°
2026-05-04 20:39 32.07893 -83.17417 25030 ft 516 kts 150°
2026-05-04 20:39 32.04881 -83.15111 25034 ft 516 kts 150°
2026-05-04 20:39 32.01873 -83.12809 25038 ft 516 kts 150°
2026-05-04 20:40 31.98865 -83.10510 25034 ft 515 kts 150°
2026-05-04 20:40 31.96870 -83.08985 25035 ft 516 kts 150°
2026-05-04 20:40 31.93860 -83.06687 25036 ft 515 kts 150°
2026-05-04 20:40 31.90852 -83.04392 25037 ft 515 kts 150°
2026-05-04 20:41 31.87847 -83.02101 25022 ft 516 kts 150°
2026-05-04 20:41 31.84830 -82.99804 25035 ft 516 kts 150°
2026-05-04 20:41 31.81812 -82.97507 25039 ft 517 kts 150°
2026-05-04 20:41 31.78796 -82.95212 25036 ft 516 kts 150°
2026-05-04 20:42 31.75872 -82.92981 24494 ft 485 kts 150°
2026-05-04 20:42 31.73188 -82.90763 24035 ft 471 kts 144°
2026-05-04 20:42 31.70669 -82.88205 24041 ft 487 kts 142°
2026-05-04 20:42 31.68053 -82.85561 24004 ft 500 kts 142°
2026-05-04 20:43 31.65396 -82.82879 24004 ft 506 kts 142°
2026-05-04 20:43 31.62740 -82.80169 24008 ft 508 kts 142°
2026-05-04 20:43 31.60071 -82.77441 24005 ft 509 kts 142°
2026-05-04 20:43 31.57381 -82.74717 23994 ft 511 kts 142°
2026-05-04 20:44 31.54693 -82.72004 23995 ft 511 kts 142°
2026-05-04 20:44 31.52005 -82.69281 23994 ft 510 kts 142°
2026-05-04 20:44 31.49407 -82.66635 23705 ft 477 kts 142°
2026-05-04 20:44 31.46988 -82.64180 23273 ft 448 kts 142°
2026-05-04 20:45 31.44639 -82.61872 22914 ft 436 kts 145°
2026-05-04 20:45 31.42214 -82.59810 22405 ft 436 kts 148°
2026-05-04 20:45 31.39770 -82.57762 21825 ft 430 kts 147°
2026-05-04 20:45 31.37358 -82.55710 21248 ft 426 kts 147°
2026-05-04 20:46 31.34985 -82.53677 20679 ft 421 kts 147°
2026-05-04 20:46 31.32623 -82.51671 20114 ft 417 kts 147°
2026-05-04 20:46 31.30283 -82.49697 19533 ft 412 kts 147°
2026-05-04 20:46 31.27965 -82.47735 18987 ft 411 kts 146°
2026-05-04 20:47 31.25671 -82.45787 18439 ft 405 kts 146°
2026-05-04 20:47 31.23394 -82.43856 17841 ft 401 kts 146°
2026-05-04 20:47 31.21144 -82.41956 17310 ft 398 kts 146°
2026-05-04 20:47 31.18907 -82.40066 16779 ft 395 kts 146°
2026-05-04 20:48 31.16697 -82.38196 16236 ft 384 kts 146°
2026-05-04 20:48 31.14598 -82.36420 15743 ft 362 kts 146°
2026-05-04 20:48 31.12609 -82.34741 15264 ft 345 kts 146°
2026-05-04 20:48 31.10726 -82.33156 14816 ft 330 kts 146°
2026-05-04 20:49 31.08896 -82.31614 14370 ft 318 kts 146°
2026-05-04 20:49 31.07134 -82.30128 13961 ft 308 kts 146°
2026-05-04 20:49 31.05419 -82.28698 13525 ft 298 kts 147°
2026-05-04 20:49 31.03682 -82.27445 13131 ft 288 kts 149°
2026-05-04 20:50 31.02003 -82.26250 12750 ft 280 kts 150°
2026-05-04 20:50 31.00364 -82.25076 12377 ft 272 kts 150°
2026-05-04 20:50 30.98772 -82.23936 12018 ft 266 kts 150°
2026-05-04 20:50 30.97211 -82.22826 11667 ft 260 kts 150°
2026-05-04 20:51 30.95741 -82.21614 11246 ft 261 kts 137°
2026-05-04 20:51 30.94672 -82.19905 10846 ft 260 kts 122°
2026-05-04 20:51 30.93725 -82.18139 10529 ft 254 kts 124°
2026-05-04 20:51 30.92693 -82.16487 10200 ft 251 kts 129°
2026-05-04 20:52 30.91605 -82.14898 9861 ft 250 kts 129°
2026-05-04 20:52 30.90557 -82.13321 9499 ft 249 kts 128°
2026-05-04 20:52 30.89500 -82.11691 9133 ft 250 kts 128°
2026-05-04 20:52 30.88458 -82.10092 8794 ft 247 kts 128°
2026-05-04 20:53 30.87417 -82.08507 8443 ft 248 kts 129°
2026-05-04 20:53 30.86370 -82.06913 8116 ft 246 kts 129°
2026-05-04 20:53 30.85335 -82.05333 7781 ft 244 kts 128°
2026-05-04 20:53 30.84320 -82.03784 7461 ft 240 kts 129°
2026-05-04 20:54 30.83306 -82.02240 7143 ft 239 kts 128°
2026-05-04 20:54 30.82305 -82.00717 6825 ft 240 kts 129°
2026-05-04 20:54 30.81296 -81.99179 6527 ft 239 kts 129°
2026-05-04 20:54 30.80296 -81.97657 6187 ft 235 kts 129°
2026-05-04 20:55 30.79310 -81.96158 5858 ft 231 kts 129°
2026-05-04 20:55 30.78346 -81.94693 5580 ft 226 kts 128°
2026-05-04 20:55 30.77400 -81.93255 5308 ft 221 kts 128°
2026-05-04 20:55 30.76474 -81.91848 5024 ft 216 kts 128°
2026-05-04 20:56 30.75565 -81.90463 4672 ft 216 kts 127°
2026-05-04 20:56 30.74656 -81.89081 4352 ft 215 kts 127°
2026-05-04 20:56 30.73744 -81.87703 4045 ft 212 kts 127°
2026-05-04 20:56 30.72851 -81.86348 3757 ft 210 kts 127°
2026-05-04 20:57 30.71965 -81.85002 3452 ft 213 kts 127°
2026-05-04 20:57 30.71060 -81.83629 3157 ft 212 kts 127°
2026-05-04 20:57 30.70023 -81.82450 2784 ft 212 kts 147°
2026-05-04 20:57 30.68616 -81.82020 2715 ft 207 kts 175°
2026-05-04 20:58 30.67194 -81.82387 2697 ft 217 kts 202°
2026-05-04 20:58 30.65971 -81.83451 2722 ft 222 kts 217°
2026-05-04 20:58 30.64788 -81.84636 2727 ft 224 kts 218°
2026-05-04 20:58 30.63584 -81.85732 2689 ft 218 kts 208°
2026-05-04 20:59 30.62158 -81.86084 2681 ft 212 kts 175°
2026-05-04 20:59 30.60777 -81.85552 2660 ft 208 kts 144°
2026-05-04 20:59 30.59782 -81.84382 2616 ft 204 kts 129°
2026-05-04 20:59 30.58847 -81.83102 2505 ft 211 kts 130°
2026-05-04 21:00 30.57879 -81.81800 2334 ft 212 kts 130°
2026-05-04 21:00 30.56927 -81.80518 2168 ft 206 kts 130°
2026-05-04 21:00 30.56018 -81.79288 1928 ft 193 kts 129°
2026-05-04 21:00 30.55224 -81.78209 1729 ft 171 kts 127°
2026-05-04 21:01 30.54533 -81.77217 1583 ft 145 kts 127°
2026-05-04 21:01 30.53931 -81.76396 1343 ft 123 kts 127°
2026-05-04 21:01 30.53401 -81.75669 1099 ft 114 kts 127°
2026-05-04 21:01 30.52868 -81.74958 942 ft 124 kts 130°
2026-05-04 21:02 30.52309 -81.74206 935 ft 123 kts 129°
2026-05-04 21:02 30.51754 -81.73454 937 ft 124 kts 129°
2026-05-04 21:02 30.51181 -81.72707 824 ft 125 kts 129°
2026-05-04 21:02 30.50618 -81.71960 602 ft 122 kts 129°
2026-05-04 21:03 30.50086 -81.71232 352 ft 117 kts 129°
2026-05-04 21:03 30.49557 -81.70536 162 ft 115 kts 131°
2026-05-04 21:03 30.49049 -81.69847 37 ft 107 kts 131°
2026-05-04 21:03 30.48648 -81.69312 29 ft 58 kts 131°
2026-05-04 21:04 30.48436 -81.69022 31 ft 43 kts 131°
2026-05-04 21:04 30.48254 -81.68781 33 ft 37 kts 130°
2026-05-04 21:04 30.48094 -81.68564 30 ft 34 kts 130°
2026-05-04 21:04 30.47951 -81.68368 29 ft 29 kts 130°
2026-05-04 21:05 30.47873 -81.68256 27 ft 9 kts 118°
2026-05-04 21:05 30.47887 -81.68201 28 ft 8 kts 38°
2026-05-04 21:05 30.47940 -81.68151 27 ft 11 kts 40°
2026-05-04 21:05 30.48004 -81.68156 27 ft 12 kts 318°
2026-05-04 21:06 30.48070 -81.68244 28 ft 14 kts 310°
2026-05-04 21:06 30.48131 -81.68328 29 ft 13 kts 310°
2026-05-04 21:06 30.48200 -81.68422 29 ft 17 kts 311°
2026-05-04 21:06 30.48266 -81.68490 31 ft 10 kts 346°
2026-05-04 21:07 30.48315 -81.68457 32 ft 9 kts 63°
2026-05-04 21:07 30.48347 -81.68356 33 ft 14 kts 72°
2026-05-04 21:07 30.48376 -81.68256 34 ft 13 kts 71°
2026-05-04 21:07 30.48410 -81.68163 33 ft 11 kts 54°
2026-05-04 21:08 30.48476 -81.68134 33 ft 11 kts
2026-05-04 21:08 30.48539 -81.68139 35 ft 7 kts 356°
2026-05-04 21:08 30.48572 -81.68153 36 ft 4 kts 309°
2026-05-04 21:08 30.48577 -81.68174 37 ft 2 kts 280°
2026-05-04 21:09 30.48579 -81.68189 37 ft 0 kts 280°